Content
SEND FEEDBACK

Daily
Averages
Monthly
Summary
United States of America

EL PASO, TEXAS


Home > North America > United States > Texas
Elevation: 3918 feet     Latitude: 31 48N     Longitude: 106 24W

WEATHER
 
SELECT A DAY
Number of Records: 171,933;   Date Range: 1/1/95 - 7/27/14
 
SHARE

PRINT THIS DATA

[ ← Previous Day ]
WEATHER ALMANAC - SEPTEMBER 9, 2013
[ Next Day → ]
[ °C ]   °F
Weather ElementAverageHighLow
Temperature77.5 °F88 °F (1:51 pm)71.1 °F (6:51 am)
Dewpoint57.3 °F63 °F (5:51 pm)53.1 °F (1:51 am)
Humidity50.4 %62 % (5:51 pm)32 % (1:51 pm)
Barometer29.72 in29.76 in (7:51 am)29.68 in (1:51 pm)
Wind Speed7.9 mph17.3 mph (2:51 pm)
Wind Gust24.2 mph (2:51 pm)
Weather ElementAverage
Visibility10 mi
Wind DirectionESE (107.8 °)

Weather ElementTotal
Precipitation---
Cooling Degree Days14.6 (Base 65)
Growing Degree Days29.6 (Base 50)
Averaged from 23 records on September 9, 2013
WEATHER CONDITIONS BREAKOUT
WIND DIRECTION BREAKOUT
WEATHER BY HOUR - SEPTEMBER 9, 2013
[ °C ]   °F
Local TimeTemperatureDewpointHumidityBarometerVisibilityWind DirectionWind SpeedGust SpeedPrecipitationEventsConditions
1:51 AM75.9 °F53.1 °F45 %29.72 in10.0 miEast (80°)5.8 mphScattered Clouds
2:51 AM75.0 °F54.0 °F48 %29.71 in10.0 miSE (130°)9.2 mphScattered Clouds
3:51 AM73.0 °F54.0 °F51 %29.71 in10.0 miESE (120°)6.9 mphScattered Clouds
4:51 AM72.0 °F55.0 °F55 %29.72 in10.0 miCalmScattered Clouds
5:51 AM72.0 °F55.9 °F57 %29.73 in10.0 miCalmScattered Clouds
6:51 AM71.1 °F55.9 °F59 %29.74 in10.0 miNNE (20°)3.5 mphMostly Cloudy
7:51 AM72.0 °F55.9 °F57 %29.76 in10.0 miNE (50°)3.5 mphMostly Cloudy
8:51 AM75.0 °F57.0 °F53 %29.76 in10.0 miCalmScattered Clouds
9:51 AM79.0 °F57.9 °F48 %29.76 in10.0 miSE (140°)10.4 mphScattered Clouds
10:51 AM82.0 °F57.9 °F44 %29.75 in10.0 miSSE (150°)11.5 mph17.3 mphScattered Clouds
11:51 AM84.0 °F57.0 °F40 %29.74 in10.0 miSE (140°)10.4 mphPartly Cloudy
12:51 PM86.0 °F55.9 °F36 %29.71 in10.0 miESE (120°)5.8 mph16.1 mphPartly Cloudy
1:51 PM88.0 °F55.0 °F32 %29.68 in10.0 miVariable5.8 mph19.6 mphMostly Cloudy
2:51 PM81.0 °F59.0 °F47 %29.69 in10.0 miSouth (170°)17.3 mph24.2 mphMostly Cloudy
3:51 PM79.0 °F61.0 °F54 %29.69 in10.0 miSSE (160°)12.7 mph0.00 inRainLight Rain
4:51 PM81.0 °F60.1 °F49 %29.68 in10.0 miSouth (170°)16.1 mph0.00 inMostly Cloudy
5:51 PM77.0 °F63.0 °F62 %29.70 in10.0 miSouth (170°)6.9 mph0.00 inRainLight Rain
6:51 PM77.0 °F60.1 °F56 %29.70 in10.0 miSE (130°)9.2 mph0.00 inOvercast
7:51 PM77.0 °F57.9 °F52 %29.72 in10.0 miSE (140°)8.1 mph0.00 inOvercast
8:51 PM77.0 °F55.9 °F48 %29.74 in10.0 miSE (140°)9.2 mphOvercast
9:51 PM77.0 °F57.0 °F50 %29.75 in10.0 miSSE (150°)9.2 mphOvercast
10:51 PM75.9 °F59.0 °F56 %29.75 in10.0 miSE (140°)10.4 mphOvercast
11:51 PM75.0 °F60.1 °F60 %29.75 in10.0 miSSE (160°)9.2 mphOvercast
Hourly data recorded from KELP, located miles away from El Paso, Texas







STORIES FROM OUR PARTNERS